Location: Kunchanapalle
(16.4623°N, 80.6176°E)
Time: 09:00:25
(UTC+00:00)

Cosmos 2278 Rocket - Pass Details

Date: 13 August 2020
Orbit: 842 x 844 km, 71.0° (Epoch: 19 September)

Event Time Altitude Azimuth Distance (km) Brightness Sun altitude
Exits shadow 23:01:22 27° 212° (SSW) 1,569 3.1 -19.0°
Maximum altitude 23:04:28 65° 287° (WNW) 919 2.1 -18.3°
Drops below altitude 10° 23:10:04 10° 9° (N) 2,458 5.0 -17.1°
Sets 23:12:32 0° 12° (NNE) 3,393 5.8 -16.5°
